Location: De Lemmer
(52.8462°N, 5.7091°E)
Time: 11:45:56
(UTC+00:00)

COSMOS 2406 - Pass Details

Date: 18 September 2020
Orbit: 844 x 863 km, 71.0° (Epoch: 30 October)

Event Time Altitude Azimuth Distance (km) Brightness Sun altitude
Rises 19:01:11 0° 328° (NNW) 3,417 7.2 -12.2°
Reaches altitude 10° 19:03:57 10° 339° (NNW) 2,478 6.2 -12.6°
Maximum altitude 19:08:55 30° 40° (NE) 1,476 4.3 -13.3°
Enters shadow 19:12:16 17° 90° (E) 1,993 4.6 -13.8°
